DELTA 1 DEB, 42581

Orbit data source: Space-Track

DELTA 1 DEB, 42581 is space debris in SSO originally from a launch on Tue, 06 Nov 1973 UTC launched from the Air Force Western Test Range (AFWTR). Debris objects in space refer to the collection of defunct objects orbiting the Earth. Examples of debris include non-operational satellites, rocket bodies, and fragments generated from explosions, collisions, or faulty payload assembly.

Loading next visibility...
Identifier
42581, 1973-086HV
Orbit
SSO
Last TLE update
11 hours ago
Origin
Manufacturer
Unknown
Mission
Spacecraft
Bus & Motor
Unknown
Mass
Unknown
Launch date (UTC)
1973-11-06 (52 years ago)
Launch vehicle
Unknown
Launch site
Air Force Western Test Range (AFWTR)
Object type
Payload
Rocket body
Debris
Shape & HBR
Unknown
Radar Cross Section
Small (<0.1 m²)

Expand to show TLE details & history

TLE from 11 hours ago
0 DELTA 1 DEB
1 42581U 73086HV  25189.89780867  .00000413  00000-0  23115-2 0  9994
2 42581 102.1789  79.5285 0078379  20.7614 339.6622 12.69729277176333
Epoch: 2025-07-08T21:32Z
TLE epoch observation values (Epoch: 2025-07-08T21:32:50.669Z)
Latitude
0.00007°
Longitude
-170.76883°
Altitude
1,328.635 km
Speed
7.22 km/s
True Right ascension
05h 18m 06s
True Declination
0° 00' 00"
Sunlit
Object was in daylight at epoch
Visualization orbit readout
Latitude
-48.58565°
Longitude
-4.39137°
Altitude
1,454.211 km
Speed
7.11 km/s
Apparent Right ascension
12h 34m 25s
Apparent Declination
-63° 08' 49"
Sunlit
Object is in full shadow
Visualization observer readout
Local Sidereal Time
20:22:12
Azimuth
216.063° SW
Elevation
-46.843°
Doppler factor
1
Orbital elements
Apogee altitude
1,441.402 km
Perigee altitude
1,319.777 km
Semi-major axis
7,758.727 km
Eccentricity
0.00784
Inclination
102.1789°
RAAN
79.5285°
Arg. of periapsis
20.7614°
True anomaly
Unknown
Mean anomaly
339.6622°
Eccentric anomaly
Unknown
Mean motion
3.17583 °/min
Orbital period
113.36 mins
BSTAR
0.0023115
Loading maneuver chart data...
Loading SW <> Apogee altitude chart data...
Loading historical data...
Loading historical data...
Loading historical data...
Loading historical data...
Loading historical data...
Loading historical data...
Loading historical data...

DELTA 1 DEB Visibility forecast

Observer location: undefined°, undefined°

Span
Click to sort rows by Start time (UTC) header in descending order
Start Az.
Max El. time (UTC)
Max El. Az.
Max El.
End time (UTC)
End Az.
10 mins2025-07-09 14:44:35.435Z96.958° ESE2025-07-09 14:49:35.435Z51.848° ENE21.418°2025-07-09 14:54:35.435Z8.738° NNE
14 mins2025-07-09 16:33:35.435Z167.038° S2025-07-09 16:39:35.435Z224.977° SW44.24°2025-07-09 16:47:35.435Z339.608° N
4 mins2025-07-09 18:30:35.435Z255.832° W2025-07-09 18:32:35.435Z272.097° WNW12.36°2025-07-09 18:34:35.435Z288.077° WNW
12 mins2025-07-10 04:27:35.435Z47.867° ENE2025-07-10 04:32:35.435Z95.536° ESE26.339°2025-07-10 04:39:35.435Z154.997° SSE
14 mins2025-07-10 06:17:35.435Z8.815° NNE2025-07-10 06:24:35.435Z286.278° WNW40.791°2025-07-10 06:31:35.435Z218.764° SW
|